Regional Weather Roundup
Issued by NWS

Home | Current Version | Previous Version | Graphics & Text | Print | Product List | Glossary On
Versions: 1 2 3 4 5 6 7 8 9 10 11 12 13 14 15 16 17 18 19 20 21 22 23 24 25 26 27 28 29 30 31 32 33 34 35 36 37 38 39 40 41 42 43 44 45 46 47 48 49 50
907
ASUS43 KLOT 222203
RWRIL

ILLINOIS REGIONAL WEATHER ROUNDUP
NATIONAL WEATHER SERVICE CHICAGO/ROMEOVILLE IL
400 PM CST SUN JAN 22 2017

NOTE: "FAIR" INDICATES FEW OR NO CLOUDS BELOW 12,000 FEET WITH NO
SIGNIFICANT WEATHER AND/OR OBSTRUCTIONS TO VISIBILITY.

* THESE STATIONS ARE NOT UNDER NWS QUALITY CONTROL. THEY ALSO MAY NOT
  REPORT WEATHER SUCH AS PRECIPITATION OR FOG.

ILZ001-002-007-009-015-016-024-222300-
NORTHWEST ILLINOIS

CITY           SKY/WX    TMP DP  RH WIND       PRES   REMARKS
MOLINE         CLOUDY    43  36  76 NW9       29.65S
STERLING*      CLOUDY    43  38  82 N9        29.65S
SAVANNA*       PTCLDY    43  36  77 NW6       29.67R
$$

ILZ003-004-008-010-011-017-018-222300-
NORTH CENTRAL ILLINOIS

CITY           SKY/WX    TMP DP  RH WIND       PRES   REMARKS
ROCKFORD       CLOUDY    43  35  73 N13       29.66R
FREEPORT*      CLOUDY    40  36  86 NW8       29.67S
ROCHELLE*      CLOUDY    40  38  91 N12       29.64S
DE KALB*       LGT RAIN  38  38  99 N10       29.64R WCI  31
PERU*          CLOUDY    39  35  86 N10       29.65R WCI  33
$$

ILZ005-006-012>014-019>023-222300-
NORTHEAST ILLINOIS

CITY           SKY/WX    TMP DP  RH WIND       PRES   REMARKS
CHICAGO-OHARE  CLOUDY    44  38  79 N8        29.62R
CHICAGO-MIDWAY CLOUDY    44  38  79 NE10      29.62R
AURORA         CLOUDY    40  37  89 N10       29.63R
LANSING*       CLOUDY    40  40 100 NE10      29.62S FOG
JOLIET*        CLOUDY    45  42  88 N7        29.62R
WAUKEGAN       CLOUDY    43  38  82 N5        29.63R
DUPAGE AIRPORT CLOUDY    41  37  86 NW9       29.62S
WHEELING       CLOUDY    43  38  82 NE6       29.64R
MORRIS*        CLOUDY    41  40  93 N6        29.62R
ROMEOVILLE*    CLOUDY    44  43  95 N10       29.62R
NORTHERLY ISL    N/A     39  38  96 MISG        N/A
$$

LMZ740>746-222300-
SOUTHERN LAKE MICHIGAN

STATION/POSITION SKY/WX   TEMP    WIND        PRES    VSBY  WAVE
                          AIR SEA DIR/SP/G                  HT/PER
                          (F)     (DEG/KT/KT) (MB)    (MI)  (FT/S)
HARRISON CRIB              39     360/  9/ 10   N/A
BURNHAM HARBOR             38     350/  7/  7   N/A
CALUMET HARBOR             38     360/  7/ 10 1002.7
BURNS HARBOR               36      20/  6/  8 1003.7
MICHIGAN CITY              37      10/  5/  6   N/A
$$

ILZ025>027-034>036-040-047-049-050-058-095>099-222300-
WEST-CENTRAL ILLINOIS

CITY           SKY/WX    TMP DP  RH WIND       PRES   REMARKS
QUINCY         CLOUDY    40  37  89 N14       29.64R FOG
GALESBURG*     CLOUDY    39  36  89 N10       29.65R WCI  33
MACOMB*        CLOUDY    40  38  94 NW12      29.67R FOG
JACKSONVILLE*  CLOUDY    47  40  74 N17       29.59R
PITTSFIELD*    CLOUDY    46  39  78 N12G20    29.62R
$$

ILZ028>032-037-038-041>044-048-051>054-059>061-222300-
CENTRAL ILLINOIS

CITY           SKY/WX    TMP DP  RH WIND       PRES   REMARKS
BLOOMINGTON    CLOUDY    44  39  82 N18       29.59R
DECATUR        CLOUDY    48  45  89 N16       29.56R
PEORIA         CLOUDY    43  35  73 N15G24    29.62R
LACON*         CLOUDY    41  36  80 N10       29.63R
LINCOLN*       CLOUDY    48  43  82 N12G18    29.59R
SPRINGFIELD    MOSUNNY   50  42  74 N13       29.58R
TAYLORVILLE    CLOUDY    47  44  88 N21       29.55R
$$

ILZ033-039-045-046-055>057-062-063-222300-
EAST-CENTRAL ILLINOIS

CITY           SKY/WX    TMP DP  RH WIND       PRES   REMARKS
CHAMPAIGN      CLOUDY    46  44  93 N15       29.54R FOG
MATTOON        CLOUDY    49  48  97 N20G25    29.50R FOG
PARIS*         CLOUDY    57  53  88 NW10G18   29.50S
$$

ILZ079-100>102-222300-
SOUTHWEST ILLINOIS

CITY           SKY/WX    TMP DP  RH WIND       PRES   REMARKS
ALTON          CLOUDY    52  45  76 N14       29.54R
BELLEVILLE     CLOUDY    53  51  96 N14G22    29.49R
CAHOKIA*       CLOUDY    53  45  74 N14       29.53R
SPARTA*        CLOUDY    51  47  87 N15G23    29.48R
$$

ILZ064>066-069>071-074>076-080>082-084>086-088>090-092>094-222300-
SOUTH-CENTRAL ILLINOIS

CITY           SKY/WX    TMP DP  RH WIND       PRES   REMARKS
CARBONDALE     SUNNY     63  52  67 N14G23    29.38F
CAIRO*         MOSUNNY   61  51  70 N15G22    29.33R
EFFINGHAM*     PTCLDY    57  54  89 N14G20    29.48S
MARION         MOSUNNY   63  54  72 N12G18    29.38F
MT. VERNON     MOSUNNY   62  51  67 N13G18    29.42F
CENTRALIA*     MOSUNNY   59  54  83 NW15      29.45R
SALEM*         MOSUNNY   61  53  74 N12       29.45S
$$

ILZ067-068-072-073-078-083-087-091-222300-
SOUTHEAST ILLINOIS

CITY           SKY/WX    TMP DP  RH WIND       PRES   REMARKS
LAWRENCEVILLE  MOCLDY    61  52  72 N17       29.43S
FLORA*         PTSUNNY   61  53  75 N9        29.44S
HARRISBURG*    MOSUNNY   61  52  72 N14G21    29.35F
ROBINSON*      PTCLDY    60  51  72 N12       29.46S
CARMI*         SUNNY     60  53  76 N15       29.36F
$$

ABBREVIATIONS USED IN REMARKS
   TC - TEMPERATURE IN CELSIUS
  WCI - WIND CHILL INDEX
   HX - HEAT INDEX
  VSB - VISIBILITY
$$





USA.gov is the U.S. government's official web portal to all federal, state and local government web resources and services.